Terminal Aerodrome Forecast
Issued by NWS Mt. Holly, NJ

Home | Current Version | Previous Version | Text Only | Print | Product List | Glossary On
Versions: 1 2 3 4 5 6 7 8 9 10 11 12 13 14 15 16 17 18 19 20 21 22 23 24 25 26 27 28 29
744
FTUS41 KPHI 121123
TAFTTN
TAF
KTTN 121123Z 1212/1312 26006KT P6SM SCT150
     FM130000 26007KT 4SM -SHSN BKN030
     FM130600 28010G20KT P6SM SCT030 OVC060=

USA.gov is the U.S. government's official web portal to all federal, state and local government web resources and services.